505  
ASUS44 KSHV 190210  
RWRSHV  
 
THE FOUR STATE AREA WEATHER ROUNDUP  
NATIONAL WEATHER SERVICE SHREVEPORT LA  
900 PM CDT FRI SEP 18 2020  
 
NOTE: "FAIR" INDICATES FEW OR NO CLOUDS BELOW 12000 FEET  
WITH NO SIGNIFICANT WEATHER AND/OR S TO VISIBILITY
.  
 
!LAZ001-LAZ014-TXZ097-190300  
SHREVEPORT...MONROE...TEXARKANA RADIOS  
 
CITY SKY/WX TMP DP RH WIND PRES REMARKS
 
SHREVEPORT PTCLDY 76 64 66 NE13 30.06R  
MONROE MOCLDY 76 66 71 N12 30.06R  
NATCHITOCHES PTCLDY 75 65 71 N8 30.03R  
TEXARKANA CLEAR 70 63 78 NE3 30.12R  

 
 
!LAZ001-LAZ014-TXZ097-190300  
OTHER LOCATIONS...  
 
CITY SKY/WX TMP DP RH WIND PRES REMARKS
 
DOWNTOWN SHV CLEAR 76 65 68 NE9 30.07R  
BOSSIER CITY CLEAR 73 65 76 NE7 30.06R  
RUSTON PTCLDY 73 65 76 N9 30.09S  
LITTLE ROCK CLEAR 68 54 60 NE12 30.17R  
EL DORADO CLEAR 71 67 87 N8 30.10R  
JACKSON CLOUDY 75 64 68 NE10G21 30.04R  
NEW ORLEANS LGT RAIN 76 70 82 NE10G18 29.96S  
HOUSTON MOCLDY 80 55 42 NE13 29.99R  
LUFKIN PTCLDY 76 63 64 N5 30.03R  
TYLER CLEAR 74 66 76 CALM 30.08R  
DAL FT WORTH PTCLDY 75 62 64 NE8 30.09R  

 
 
!TXZ136-TXZ165-190300  
TYLER...LUFKIN RADIOS  
 
CITY SKY/WX TMP DP RH WIND PRES REMARKS
 
TYLER CLEAR 74 66 76 CALM 30.08R  
GILMER CLEAR 72 61 68 N7 30.10R  
LONGVIEW CLEAR 74 63 68 NE10 30.07R  
LUFKIN PTCLDY 76 63 64 N5 30.03R  

 
 
!TXZ136-TXZ165-190300  
OTHER LOCATIONS...  
 
CITY SKY/WX TMP DP RH WIND PRES REMARKS
 
NACOGDOCHES CLEAR 76 65 68 N3 30.05R  
BEAUMONT MOCLDY 77 56 48 NE9 29.96R  
HOUSTON MOCLDY 80 55 42 NE13 29.99R  
COLLEGE STN CLEAR 79 64 60 N12 30.02R  
AUSTIN PTCLDY 74 63 68 N7 30.03R  
DAL FT WORTH PTCLDY 75 62 64 NE8 30.09R  
TEXARKANA CLEAR 70 63 78 NE3 30.12R  
SHREVEPORT PTCLDY 76 64 66 NE13 30.06R  
FORT POLK PTCLDY 74 63 66 N6 30.02R  
LAKE CHARLES MOCLDY 71 60 68 NE8 29.97R  

 
 
 
CLICK HERE TO GO TO PREVIOUS BULLETINS.

The Nexlab LA Page
The Nexlab TX Page
The Nexlab AR Page
The Nexlab OK Page Main Text Page